Home   Weather   Rygge   Past weeks

Flag for Norway Past Weather in Rygge, Norway — Yesterday and Last 2 Weeks

Now
32 °F

Low clouds.


Feels Like: 32 °F
Forecast: 33 / 42 °F
Wind: 2 mph from North

Location: Rygge

Current Time: Jan 18, 2017 at 2:41:26 am

Latest Report: Jan 18, 2017 at 1:00 am


Visibility: 0 mi

Pressure: 30.38 "Hg

Humidity: 99%

Dew Point: 31 °F

Location of RyggeLocation

Past Weather in Rygge — Graph

°F

Rygge Temperature Yesterday

Maximum temperature yesterday: 33 °F (at 8:00 pm)
Minimum temperature yesterday: 21 °F (at 12:00 am)
Average temperature yesterday: 30 °F

High & Low Weather Summary for the Past Weeks

 TemperatureHumidityPressure
High42 °F (Jan 11, 2:00 am)100% (Jan 9, 2:00 am)30.69 "Hg (Jan 9, 2:00 am)
Low10 °F (Jan 5, 9:00 am)48% (Jan 4, 11:00 am)28.50 "Hg (Jan 11, 3:00 pm)
Average30 °F83%29.82 "Hg
* Reported Jan 3 1:00 am — Jan 18 1:00 am, Rygge, Weather by CustomWeather, © 2017

Note: Actual official high and low records may vary slightly from our data, if they occured in-between our weather recording intervals... More about our weather records

Advertising

Rygge Weather History for the Previous 24 Hours

Scroll right to see more
 ConditionsComfort  
Time TempWeatherWind HumidityBarometerVisibility
1:00 am
Wed, Jan 18
32 °FLow clouds.2 mph99%30.38 "Hg0 mi
12:00 am32 °FOvercast.2 mph99%30.38 "Hg0 mi
11:00 pm
Tue, Jan 17
32 °FIce fog.1 mph99%30.38 "Hg1 mi
10:00 pm31 °FIce fog.1 mph97%30.38 "Hg0 mi
9:00 pm32 °FPassing clouds.1 mph97%30.37 "Hg3 mi
8:00 pm33 °FPassing clouds.2 mph96%30.37 "Hg6 mi
7:00 pm32 °FRain showers. Light fog.1 mph95%30.38 "Hg5 mi
6:00 pm32 °FDrizzle. Overcast.1 mph96%30.38 "Hg8 mi
5:00 pm32 °FPassing clouds.1 mph95%30.39 "Hg6 mi
4:00 pm31 °FRain showers. Passing clouds.1 mph92%30.39 "Hg6 mi
3:00 pm32 °FDrizzle. Overcast.1 mph88%30.38 "Hg16 mi
2:00 pm31 °FOvercast.1 mph86%30.39 "Hg28 mi
1:00 pm31 °FOvercast.2 mph88%30.40 "Hg28 mi
12:00 pm31 °FScattered clouds.2 mph88%30.40 "Hg31 mi
11:00 am30 °FScattered clouds.2 mph90%30.42 "Hg31 mi
10:00 am29 °FLow clouds.2 mph91%30.42 "Hg31 mi
9:00 am29 °FLow clouds.2 mph92%30.42 "Hg31 mi
8:00 am29 °FLight snow. Overcast.3 mph90%30.41 "Hg8 mi
7:00 am29 °FFog.2 mph69%30.41 "Hg22 mi
6:00 am30 °FClear.2 mph67%30.41 "Hg31 mi
5:00 am31 °FPassing clouds.2 mph70%30.41 "Hg31 mi
4:00 am32 °FOvercast.3 mph73%30.42 "Hg25 mi
3:00 am25 °FOvercast.2 mph92%30.44 "Hg15 mi
2:00 am24 °FOvercast.3 mph92%30.44 "Hg12 mi
Weather by CustomWeather, © 2017

See weather overviewHow to use our weather pages